TimePDT,TemperatureF,Dew PointF,Humidity,Sea Level PressureIn,VisibilityMPH,Wind Direction,Wind SpeedMPH,Gust SpeedMPH,PrecipitationIn,Events,Conditions,WindDirDegrees,DateUTC
12:54 AM,70.0,37.9,31,29.85,10.0,NNW,3.5,-,N/A,,Clear,340,2013-06-22 07:54:00
1:54 AM,66.9,42.1,40,29.85,10.0,Calm,Calm,-,N/A,,Clear,0,2013-06-22 08:54:00
2:54 AM,66.9,42.1,40,29.85,10.0,Calm,Calm,-,N/A,,Clear,0,2013-06-22 09:54:00
3:54 AM,66.0,39.9,38,29.85,10.0,North,3.5,-,N/A,,Clear,360,2013-06-22 10:54:00
4:54 AM,66.0,39.0,37,29.86,10.0,Calm,Calm,-,N/A,,Clear,0,2013-06-22 11:54:00
5:54 AM,64.0,43.0,46,29.88,10.0,Calm,Calm,-,N/A,,Clear,0,2013-06-22 12:54:00
6:54 AM,68.0,43.0,40,29.89,10.0,ESE,3.5,-,N/A,,Clear,110,2013-06-22 13:54:00
7:54 AM,71.1,43.0,36,29.89,10.0,SE,4.6,-,N/A,,Clear,130,2013-06-22 14:54:00
8:54 AM,73.9,44.1,34,29.90,10.0,Calm,Calm,-,N/A,,Clear,0,2013-06-22 15:54:00
9:54 AM,80.1,41.0,25,29.90,10.0,Calm,Calm,-,N/A,,Clear,0,2013-06-22 16:54:00
10:54 AM,82.0,41.0,23,29.89,10.0,West,5.8,-,N/A,,Clear,280,2013-06-22 17:54:00
11:54 AM,84.9,39.9,20,29.88,10.0,West,10.4,-,N/A,,Clear,280,2013-06-22 18:54:00
12:54 PM,88.0,39.0,18,29.87,10.0,WNW,12.7,19.6,N/A,,Clear,290,2013-06-22 19:54:00
1:54 PM,89.1,39.9,18,29.85,10.0,NW,11.5,-,N/A,,Clear,310,2013-06-22 20:54:00
2:54 PM,91.0,39.0,16,29.83,10.0,West,9.2,-,N/A,,Clear,280,2013-06-22 21:54:00
3:54 PM,91.0,37.9,15,29.81,10.0,WNW,9.2,-,N/A,,Clear,300,2013-06-22 22:54:00
4:54 PM,91.0,34.0,13,29.78,10.0,NW,5.8,16.1,N/A,,Clear,310,2013-06-22 23:54:00
5:54 PM,91.0,34.0,13,29.77,10.0,WNW,9.2,-,N/A,,Clear,300,2013-06-23 00:54:00
6:54 PM,90.0,37.0,15,29.77,10.0,WNW,8.1,-,N/A,,Clear,300,2013-06-23 01:54:00
7:54 PM,88.0,37.0,16,29.76,10.0,West,4.6,-,N/A,,Clear,260,2013-06-23 02:54:00
8:54 PM,86.0,37.9,18,29.76,10.0,Calm,Calm,-,N/A,,Clear,0,2013-06-23 03:54:00
9:54 PM,82.0,37.0,20,29.78,10.0,Calm,Calm,-,N/A,,Clear,0,2013-06-23 04:54:00
10:54 PM,80.1,37.0,21,29.78,10.0,North,5.8,-,N/A,,Clear,360,2013-06-23 05:54:00
11:54 PM,75.9,37.0,24,29.79,10.0,SE,3.5,-,N/A,,Clear,130,2013-06-23 06:54:00